[[{"header":{"parameterUnit":"m.s-1","parameterCategory":1,"la1":30.2991,"la2":30.254,"lo1":-89.0895,"lo2":-89.0444,"dy":0.0017,"dx":0.0017,"nx":28,"ny":28,"refTime":"2024-05-03T09:00:00:Z","depth":0,"parameterNumber":2,"parameterNumberName":"U-component_of_WINDS"},"data":[0,0,0,0,0,0,0,0,0,0,0,0,0,0,0,0,0,0,0,0,0,0,0,0,0,0,0,0,0,0,0,0,0,0,0,0,0,0,0,0,0,0,0,0,0,0,0,0,0,0,0,0,0,0,0,0,0,0,-2.7332,-2.7333,0,-2.7399,-2.7399,-2.74,-2.7383,-2.7382,-2.7381,-2.738,-2.7446,-2.7449,-2.7452,0,0,0,0,0,0,0,0,0,0,0,0,0,-2.7191,-2.7194,-2.7332,-2.7333,-2.7334,-2.7399,-2.7399,-2.74,-2.7384,-2.7382,-2.738,-2.7379,-2.7445,-2.7449,-2.7452,0,0,0,0,0,0,0,0,0,0,0,0,0,-2.7255,-2.7195,-2.7332,-2.7333,-2.7334,-2.7398,-2.7399,-2.7401,-2.7384,-2.7382,-2.738,-2.7378,-2.7444,-2.7449,-2.7453,-2.752,0,0,-2.7467,-2.7469,0,0,0,0,0,0,0,0,-2.7251,-2.726,-2.7332,-2.7333,-2.7334,-2.7381,-2.7374,-2.744,-2.7384,-2.7365,-2.7379,-2.7377,-2.7426,-2.7432,-2.7449,-2.7523,-2.7526,-2.7467,-2.747,-2.7472,-2.7473,0,0,0,0,0,0,0,-2.7247,-2.7257,-2.7359,-2.7334,-2.7335,-2.7331,-2.7338,-2.7387,-2.7406,-2.7367,-2.7365,-2.7374,-2.7426,-2.7444,-2.745,-2.7527,-2.7467,-2.7471,-2.7474,-2.7475,-2.766,-2.7662,0,0,0,0,0,0,-2.7242,-2.7253,-2.7356,-2.7361,-2.7287,-2.7335,-2.7342,-2.7368,-2.7405,-2.7409,-2.7375,-2.7373,-2.7438,-2.7445,-2.7452,-2.7533,-2.7472,-2.7476,-2.7478,-2.7658,-2.7661,-2.7663,0,0,0,0,0,0,-2.7239,-2.7251,-2.7354,-2.7307,-2.7319,-2.7339,-2.7368,-2.737,-2.7388,-2.7412,-2.7415,-2.739,-2.7436,-2.7446,-2.7503,-2.7535,-2.7478,-2.7482,-2.7655,-2.7659,-2.7662,-2.7696,0,0,0,0,0,0,-2.7235,-2.725,-2.7275,-2.7307,-2.7322,-2.7404,-2.737,-2.7373,-2.7396,-2.7393,-2.7426,-2.743,-2.7436,-2.7497,-2.7508,-2.7541,-2.7485,-2.7653,-2.7657,-2.7661,-2.7692,-2.77,-2.7707,0,0,0,0,0,-2.723,-2.7282,-2.7277,-2.7289,-2.7354,-2.7406,-2.7414,-2.7419,-2.7399,-2.7424,-2.744,-2.7429,-2.753,-2.7503,-2.7515,-2.755,-2.7651,-2.7656,-2.7661,-2.7688,-2.7698,-2.7706,0,0,0,0,0,0,-2.7252,-2.7286,-2.7281,-2.7344,-2.7372,-2.7403,-2.7435,-2.7429,-2.7463,-2.7459,-2.7464,-2.7472,-2.7531,-2.7546,-2.7515,-2.7617,-2.7588,-2.7595,-2.7604,-2.7614,-2.7621,-2.7616,-2.7489,0,0,0,0,0,-2.7264,-2.7303,-2.7331,-2.7384,-2.7399,-2.7415,-2.7437,-2.7439,-2.7468,-2.748,-2.7499,-2.7528,-2.7566,-2.7591,-2.7627,-2.7694,-2.7702,-2.7724,-2.7732,-2.7738,-2.7744,-2.7782,-2.7792,-2.768,-2.768,-2.7679,0,0,-2.729,-2.7313,-2.7337,-2.739,-2.7411,-2.7452,-2.7425,-2.7468,-2.7498,-2.7486,-2.7542,-2.7557,-2.7589,-2.7652,-2.7681,-2.7667,-2.7777,-2.7744,-2.7749,-2.7752,-2.7788,-2.7798,-2.7808,-2.7683,-2.7682,-2.7682,0,0,-2.7357,-2.7379,-2.7427,-2.745,-2.7483,-2.7494,-2.7506,-2.7537,-2.7547,-2.7603,-2.7596,-2.7632,-2.7697,-2.7721,-2.7741,-2.782,-2.7812,-2.7832,-2.787,-2.7907,-2.7916,-2.7924,-2.7952,-2.7962,-2.7839,-2.7839,-2.7839,0,-2.7385,-2.7445,-2.7452,-2.7497,-2.752,-2.7512,-2.7561,-2.7582,-2.7626,-2.7643,-2.7627,-2.771,-2.7731,-2.78,-2.7819,-2.7836,-2.785,-2.7828,-2.7914,-2.7922,-2.793,-2.7957,-2.7967,-2.7841,-2.7841,-2.7841,-2.784,0,-2.7478,-2.752,-2.7555,-2.7598,-2.7626,-2.7672,-2.7686,-2.7713,-2.7713,-2.7726,-2.7783,-2.7809,-2.7851,-2.7867,-2.7868,-2.7937,-2.7927,-2.7913,-2.7883,-2.7942,-2.7968,-2.7979,-2.7844,-2.7843,-2.7843,-2.7842,0,0,-2.7559,-2.7607,-2.762,-2.764,-2.7678,-2.771,-2.7757,-2.7799,-2.7822,-2.7854,-2.7893,-2.795,-2.7937,-2.7961,-2.7964,-2.7996,-2.8058,-2.7978,-2.7979,-2.7992,-2.8136,-2.8146,-2.8158,-2.8053,-2.8055,-2.8057,-2.8133,0,-2.763,-2.7712,-2.772,-2.7794,-2.7833,-2.7828,-2.7868,-2.7896,-2.791,-2.7946,-2.796,-2.8001,-2.7981,-2.7995,-2.8027,-2.8044,-2.8087,-2.8038,-2.809,-2.8091,-2.8081,-2.8172,-2.8182,-2.8253,-2.8143,-2.8145,-2.8146,0,-2.7723,-2.7758,-2.7836,-2.7869,-2.7886,-2.7923,-2.7963,-2.7997,-2.8029,-2.8036,-2.8064,-2.8063,-2.8112,-2.8082,-2.8149,-2.8116,-2.8138,-2.8149,-2.8152,-2.8156,-2.8122,-2.8178,-2.8276,-2.8286,-2.8162,-2.8161,-2.816,0,-2.7774,-2.7841,-2.7897,-2.7914,-2.7955,-2.7981,-2.7999,-2.8029,-2.8054,-2.8089,-2.8105,-2.8145,-2.8167,-2.8198,-2.8209,-2.8186,-2.8276,-2.8247,-2.8284,-2.8284,-2.8302,-2.8301,-2.8405,-2.8317,-2.8317,-2.8317,-2.8317,0,-2.7852,-2.79,-2.792,-2.7954,-2.8008,-2.8018,-2.8071,-2.8088,-2.8115,-2.8152,-2.815,-2.8185,-2.8197,-2.8235,-2.8244,-2.8298,-2.8308,-2.8316,-2.8318,-2.8316,-2.8315,-2.833,-2.8325,-2.832,-2.8319,-2.8319,-2.8318,0,-2.7918,-2.7934,-2.7994,-2.8028,-2.8038,-2.8076,-2.8106,-2.8139,-2.8153,-2.82,-2.8212,-2.8234,-2.8278,-2.8292,-2.8345,-2.8351,-2.8415,-2.8413,-2.8404,-2.8404,-2.8441,-2.8437,-2.8558,-2.8574,-2.8476,-2.8477,-2.8478,0,-2.7966,-2.8003,-2.8042,-2.8068,-2.8087,-2.8128,-2.8154,-2.8165,-2.8192,-2.8232,-2.8261,-2.8305,-2.834,-2.8412,-2.8432,-2.8473,-2.8471,-2.8511,-2.8477,-2.8475,-2.8472,-2.847,-2.8474,-2.8517,-2.8518,-2.8519,-2.8519,0,-2.8051,-2.8057,-2.8095,-2.8136,-2.8167,-2.82,-2.8232,-2.8253,-2.8268,-2.8299,-2.8345,-2.8373,-2.8428,-2.8472,-2.8514,-2.8533,-2.8529,-2.853,-2.8541,-2.8539,-2.8533,-2.8537,-2.8421,-2.8527,-2.8526,-2.8525,-2.8525,-2.8525,-2.8109,-2.8142,-2.8175,-2.8218,-2.8243,-2.8273,-2.8306,-2.8325,-2.8363,-2.8409,-2.8414,-2.8463,-2.8496,-2.8552,-2.8573,-2.8613,-2.8601,-2.8617,-2.8621,-2.8624,-2.8627,-2.8527,-2.862,-2.862,-2.862,-2.862,-2.862,0,-2.8193,-2.8215,-2.8254,-2.8299,-2.8333,-2.8327,-2.8362,-2.8391,-2.8434,-2.8465,-2.8501,-2.8554,-2.8597,-2.8622,-2.8665,-2.8692,-2.8691,-2.8703,-2.8701,-2.8705,-2.8635,-2.8621,-2.8703,-2.8703,-2.8703,-2.8703,-2.8703,-2.8703,-2.8241,-2.8297,-2.8307,-2.8376,-2.8397,-2.8446,-2.8467,-2.8495,-2.852,-2.8579,-2.8615,-2.8631,-2.866,-2.8706,-2.8745,-2.8752,-2.8768,-2.8781,-2.8786,-2.8719,-2.871,-2.8702,-2.8689,-2.8784,-2.8784,-2.8853,-2.8854,-2.8854]},{"header":{"parameterUnit":"m.s-1","parameterCategory":1,"la1":30.2991,"la2":30.254,"lo1":-89.0895,"lo2":-89.0444,"dy":0.0017,"dx":0.0017,"nx":28,"ny":28,"refTime":"2024-05-03T09:00:00:Z","depth":0,"parameterNumber":3,"parameterNumberName":"V-component_of_WINDS"},"data":[0,0,0,0,0,0,0,0,0,0,0,0,0,0,0,0,0,0,0,0,0,0,0,0,0,0,0,0,0,0,0,0,0,0,0,0,0,0,0,0,0,0,0,0,0,0,0,0,0,0,0,0,0,0,0,0,0,0,2.5773,2.5773,0,2.5804,2.5805,2.5805,2.585,2.5851,2.5851,2.5852,2.5879,2.5879,2.5879,0,0,0,0,0,0,0,0,0,0,0,0,0,2.5746,2.5746,2.5773,2.5773,2.5773,2.5804,2.5805,2.5805,2.585,2.5851,2.5852,2.5853,2.5879,2.5879,2.5879,0,0,0,0,0,0,0,0,0,0,0,0,0,2.5766,2.5746,2.5773,2.58,2.5802,2.5804,2.5805,2.5805,2.585,2.5851,2.5852,2.5853,2.5879,2.5879,2.5879,2.5856,0,0,2.5879,2.5879,0,0,0,0,0,0,0,0,2.5764,2.5766,2.5795,2.5798,2.5801,2.5825,2.5805,2.5822,2.5849,2.5831,2.5852,2.5854,2.586,2.5861,2.5865,2.5857,2.5858,2.5879,2.5879,2.5879,2.5879,0,0,0,0,0,0,0,2.5763,2.5765,2.5785,2.5796,2.5799,2.5809,2.5813,2.5809,2.5838,2.5833,2.5836,2.584,2.5861,2.5864,2.5865,2.5858,2.5879,2.5879,2.5879,2.5879,2.5834,2.5833,0,0,0,0,0,0,2.5758,2.5764,2.5784,2.5786,2.5785,2.5808,2.5813,2.5816,2.5839,2.5843,2.5839,2.5842,2.5864,2.5865,2.5867,2.5841,2.5879,2.5879,2.5879,2.5835,2.5834,2.5832,0,0,0,0,0,0,2.5758,2.576,2.5783,2.5776,2.578,2.5807,2.581,2.5816,2.5819,2.5843,2.5848,2.5837,2.5865,2.5867,2.5859,2.5843,2.5879,2.5879,2.5837,2.5835,2.5833,2.579,0,0,0,0,0,0,2.5757,2.5759,2.5751,2.5776,2.578,2.5775,2.5809,2.5815,2.5819,2.5824,2.5842,2.5847,2.5866,2.5858,2.5859,2.5843,2.5879,2.5838,2.5836,2.5834,2.5793,2.5787,2.5782,0,0,0,0,0,2.5756,2.5736,2.5751,2.5753,2.5771,2.5774,2.5777,2.5801,2.5818,2.581,2.5826,2.5846,2.5845,2.5857,2.5858,2.5842,2.5839,2.5836,2.5834,2.5795,2.5788,2.5782,0,0,0,0,0,0,2.5707,2.574,2.5756,2.5745,2.5757,2.5782,2.5772,2.5792,2.5798,2.5801,2.583,2.5833,2.5822,2.5831,2.5845,2.5821,2.5845,2.5842,2.5816,2.5809,2.5803,2.5801,2.5879,0,0,0,0,0,2.5696,2.5697,2.5725,2.5712,2.5718,2.5744,2.5746,2.5764,2.5777,2.5782,2.5797,2.5807,2.5809,2.5809,2.5813,2.5795,2.5799,2.5784,2.5779,2.5774,2.5771,2.5763,2.5757,2.5824,2.5824,2.5824,0,0,2.567,2.5689,2.5688,2.5703,2.5714,2.5714,2.5748,2.5746,2.5746,2.5781,2.5775,2.5786,2.5799,2.5787,2.5782,2.5794,2.5754,2.5771,2.5767,2.5767,2.576,2.5754,2.5748,2.5822,2.5822,2.5822,0,0,2.5625,2.564,2.5631,2.5643,2.5661,2.5679,2.5676,2.5699,2.5709,2.5704,2.5731,2.573,2.5733,2.5742,2.5746,2.5707,2.5726,2.5707,2.5677,2.5669,2.5664,2.5659,2.5645,2.564,2.5704,2.5704,2.5704,0,2.5592,2.5595,2.5623,2.5621,2.5627,2.5661,2.5652,2.5661,2.5678,2.5681,2.5695,2.57,2.5711,2.5702,2.5692,2.5695,2.5693,2.5704,2.5663,2.5658,2.5655,2.5641,2.5636,2.5701,2.5702,2.5702,2.5702,0,2.5552,2.5554,2.5544,2.5563,2.5568,2.5562,2.5589,2.559,2.5608,2.5624,2.5618,2.5634,2.5641,2.564,2.5656,2.5632,2.564,2.5658,2.5682,2.5645,2.5634,2.5629,2.5698,2.5699,2.5699,2.57,0,0,2.5476,2.5513,2.5509,2.5518,2.5541,2.5542,2.5538,2.5547,2.5548,2.5558,2.5555,2.5557,2.5575,2.558,2.5598,2.5591,2.5559,2.561,2.5611,2.56,2.5534,2.552,2.5514,2.5572,2.5571,2.5571,2.5533,0,2.5435,2.5432,2.5459,2.5447,2.5449,2.5483,2.5479,2.5492,2.5507,2.5509,2.5525,2.5527,2.555,2.5554,2.5548,2.5564,2.5546,2.5567,2.5568,2.5568,2.5564,2.5508,2.5493,2.5457,2.5529,2.5528,2.5527,0,2.5387,2.5398,2.5388,2.5414,2.5415,2.5411,2.5423,2.5425,2.5441,2.5452,2.5459,2.5481,2.5477,2.5501,2.5496,2.5509,2.5511,2.5519,2.5519,2.5519,2.5545,2.5507,2.5446,2.5441,2.552,2.5521,2.5521,0,2.5333,2.5345,2.5341,2.5348,2.5377,2.5374,2.5386,2.5403,2.5407,2.5416,2.542,2.5427,2.5431,2.5437,2.5459,2.5474,2.5451,2.5477,2.546,2.5459,2.5453,2.5453,2.5391,2.5454,2.5454,2.5455,2.5455,0,2.5285,2.5277,2.5318,2.5315,2.5307,2.5338,2.5329,2.5343,2.5359,2.5358,2.5387,2.5386,2.5416,2.5417,2.5435,2.5428,2.5429,2.5438,2.5443,2.5436,2.5434,2.5437,2.544,2.5453,2.5453,2.5454,2.5454,0,2.5223,2.525,2.5247,2.5277,2.5284,2.5277,2.5301,2.5299,2.5317,2.5316,2.5318,2.5345,2.5349,2.5372,2.538,2.5392,2.5379,2.5388,2.5374,2.5377,2.5359,2.5361,2.5297,2.529,2.5357,2.5356,2.5356,0,2.519,2.5185,2.5215,2.5218,2.523,2.5234,2.524,2.5269,2.5273,2.5292,2.5287,2.5294,2.5301,2.5305,2.5325,2.5331,2.5341,2.5318,2.5342,2.5335,2.5341,2.5341,2.5341,2.5313,2.5312,2.5311,2.5311,0,2.5129,2.5144,2.5152,2.5165,2.5172,2.5182,2.5195,2.5195,2.5228,2.5231,2.5237,2.5243,2.5253,2.5259,2.5269,2.528,2.53,2.5304,2.53,2.5292,2.5285,2.5289,2.536,2.5305,2.5305,2.5306,2.5306,2.5306,2.5081,2.5079,2.5101,2.5109,2.5122,2.5134,2.5134,2.5153,2.5159,2.5171,2.5188,2.5191,2.5207,2.5224,2.5233,2.5235,2.5247,2.5242,2.524,2.5239,2.5235,2.5285,2.5237,2.5237,2.5237,2.5237,2.5237,0,2.5023,2.5039,2.5046,2.5065,2.5071,2.5093,2.5108,2.5111,2.5115,2.5129,2.5137,2.5143,2.5149,2.517,2.5178,2.5176,2.5186,2.5177,2.5177,2.518,2.5224,2.5226,2.5169,2.5169,2.5169,2.5169,2.5169,2.5169,2.4993,2.4991,2.5008,2.5013,2.5029,2.5034,2.5041,2.5052,2.5064,2.5071,2.5077,2.5092,2.5108,2.5118,2.5125,2.5131,2.5132,2.512,2.5129,2.517,2.5176,2.5183,2.5185,2.5121,2.512,2.5085,2.5085,2.5085]}]]